Regional Weather Roundup
Issued by NWS

Home | Current Version | Previous Version | Text Only | Print | Product List | Glossary On
Versions: 1 2 3 4 5 6 7 8 9 10 11 12 13 14 15 16 17 18 19 20 21 22 23 24 25 26 27
000
ASCA42 TJSJ 252210
RWRPR
PUERTO RICO/U.S. VIRGIN ISLANDS HOURLY WEATHER ROUNDUP
NATIONAL WEATHER SERVICE SAN JUAN PR
600 PM AST SAT MAR 25 2017

PRZ001>002-007>008-010-252300-
PUERTO RICO

CITY           SKY/WX    TMP DP  RH WIND       PRES   REMARKS
SAN JUAN LMM   MOCLDY    79  72  78 S13G22    29.89R
AGUADILLA      CLEAR     79  70  73 SW8       29.89R
CEIBA          CLOUDY    81  73  78 S14       29.92S
$$

VIZ001>002-252300-
U.S. VIRGIN ISLANDS

CITY           SKY/WX    TMP DP  RH WIND       PRES   REMARKS
CHARLOTTE AMA  MOCLDY    75  73  94 E10       29.91F
CHRISTIANSTED  MOCLDY    79  72  78 SE10      29.93R
$$

HOURLY WEATHER ROUNDUP FOR THE NEWS MEDIA

CITY           SKY/WX    TMP DP  RH WIND       PRES   REMARKS
ORLANDO        PTSUNNY   80  54  40 SE13      30.13F
NEW YORK       CLOUDY    52  41  66 NE16      30.28R
NEWARK         CLOUDY    49  40  71 N15       30.28R
CHICAGO        LGT RAIN  43  40  89 N10       29.99S FOG
HARTFORD       CLOUDY    40  36  86 N5        30.28R
BOSTON         CLOUDY    37  34  89 N8        30.32R WCI  31
DALLAS         MOSUNNY   72  45  37 NW12G18   29.92F
PHILADELPHIA   LGT RAIN  62  57  83 NE13      30.18R
LOS ANGELES    PTSUNNY   64  56  75 SW13      30.06F
WASHINGTON DC  CLOUDY    73  52  47 NE6       30.14R



USA.gov is the U.S. government's official web portal to all federal, state and local government web resources and services.